Location: Kervinic
(48.4279°N, 4.7373°W)
Time: 15:48:00
(UTC+00:00)

USA 234 - Pass Details

Date: 09 April 2020
Orbit: 1102 x 1106 km, 123.0° (Epoch: 14 May)

Event Time Altitude Azimuth Distance (km) Brightness Sun altitude
Rises 21:36:06 0° 55° (NE) 3,926 6.1 -23.0°
Reaches altitude 10° 21:38:38 10° 59° (ENE) 2,966 5.4 -23.3°
Maximum altitude 21:45:07 61° 139° (SE) 1,244 3.2 -24.1°
Drops below altitude 10° 21:51:33 10° 219° (SW) 2,956 5.4 -24.8°
Sets 21:54:05 0° 222° (SW) 3,912 6.1 -25.1°
